Tracking 25378 objects as of 22-Jan-2022
HD Live streaming from Space Station
objects crossing your sky now

STARLINK-1715

Track STARLINK-1715 now!
10-day predictions
STARLINK-1715 is classified as:


NORAD ID: 46671
Int'l Code: 2020-073B
Perigee: 552.7 km
Apogee: 555.9 km
Inclination: 53.1 °
Period: 95.6 minutes
Semi major axis: 6925 km
RCS: Unknown
Launch date: October 18, 2020
Source: United States (US)
Launch site: AIR FORCE EASTERN TEST RANGE (AFETR)
aabbcc
Your satellite tracking list
Your tracking list is empty




NASA's NSSDC Master Catalog

Two Line Element Set (TLE):
1 46671U 20073B   22021.71803997 -.00000030  00000-0  16902-4 0  9993
2 46671  53.0541 176.1679 0002311  76.7140 283.4106 15.06403446 69779
Source of the keplerian elements: AFSPC